EW5862 Weather Reports


Display with metric or nautical units.
time (UTC)temp
F
wind
direction
speed
MPH
gust
MPH
rain 1hr
in
rain 24hr
in
rain mn
in
humidity
%
barometer
mb
20260507003517 53 0.0 1.0 0.00 0.00 0.00 85 1010.7
20260507002537 53 338 2.0 3.0 0.00 0.00 0.00 84 1010.9
20260507001517 53 338 3.0 4.0 0.00 0.00 0.00 84 1011.0
20260507000517 53 338 4.0 7.0 0.00 0.00 0.00 84 1011.1
20260506235524 54 338 4.0 5.0 0.00 0.00 0.00 84 1010.9
20260506234516 54 338 3.0 5.0 0.00 0.00 0.00 84 1011.0
20260506233517 53 315 2.0 4.0 0.00 0.00 0.00 84 1011.0
20260506232516 53 338 2.0 3.0 0.00 0.00 0.00 84 1010.9
20260506231517 53 338 2.0 2.0 0.00 0.00 0.00 84 1011.0
20260506230517 53 338 1.0 2.0 0.00 0.00 0.00 83 1010.9
20260506225537 53 338 3.0 4.0 0.00 0.00 0.00 83 1011.1
20260506224516 54 315 3.0 5.0 0.00 0.00 0.00 83 1011.0
20260506223516 54 315 1.0 2.0 0.00 0.00 0.00 81 1011.1
20260506222517 55 338 2.0 4.0 0.00 0.00 0.00 82 1011.1
20260506221517 55 0.0 0.0 0.00 0.00 0.00 81 1011.0
20260506220517 55 0.0 1.0 0.00 0.00 0.00 81 1011.0
20260506215537 56 338 2.0 4.0 0.00 0.00 0.00 81 1011.0
20260506214517 56 338 4.0 5.0 0.00 0.00 0.00 81 1011.2
20260506213517 56 338 4.0 8.0 0.00 0.00 0.00 81 1011.2
20260506212516 56 338 5.0 9.0 0.00 0.00 0.00 81 1011.2
20260506211517 56 338 4.0 8.0 0.00 0.00 0.00 81 1011.2
20260506210517 56 338 6.0 9.0 0.00 0.00 0.00 81 1011.1
20260506205516 56 338 6.0 9.0 0.00 0.00 0.00 81 1011.0
20260506204517 56 338 4.0 8.0 0.00 0.00 0.00 81 1011.1
20260506203516 56 338 5.0 10.0 0.00 0.00 0.00 81 1010.8
20260506202516 56 338 7.0 12.0 0.00 0.00 0.00 80 1010.7
20260506201516 57 338 5.0 10.0 0.00 0.00 0.00 80 1010.6
20260506200517 57 338 7.0 10.0 0.00 0.00 0.00 80 1010.3
20260506195516 57 338 7.0 11.0 0.00 0.00 0.00 80 1010.0
20260506194517 57 338 7.0 11.0 0.00 0.00 0.00 79 1009.8
20260506193516 57 338 6.0 9.0 0.00 0.00 0.00 79 1009.8
20260506192517 57 338 2.0 8.0 0.00 0.00 0.00 79 1009.6
20260506191516 57 338 4.0 10.0 0.00 0.00 0.00 78 1009.5
20260506190517 57 338 3.0 7.0 0.00 0.00 0.00 77 1009.5
20260506185517 58 338 1.0 5.0 0.00 0.00 0.00 76 1009.4
20260506184517 58 338 4.0 9.0 0.00 0.00 0.00 75 1009.3
20260506183517 59 338 4.0 10.0 0.00 0.00 0.00 73 1009.1
20260506182517 59 338 5.0 11.0 0.00 0.00 0.00 73 1008.8
20260506181516 60 338 3.0 9.0 0.00 0.00 0.00 73 1008.9
20260506180516 60 338 3.0 8.0 0.00 0.00 0.00 72 1008.8
20260506175556 60 338 6.0 12.0 0.00 0.00 0.00 71 1008.7
20260506174516 61 338 8.0 13.0 0.00 0.00 0.00 70 1008.7
20260506173536 62 338 5.0 12.0 0.00 0.00 0.00 69 1008.9
20260506172516 63 338 7.0 12.0 0.00 0.00 0.00 67 1008.8
20260506171516 63 338 6.0 12.0 0.00 0.00 0.00 65 1008.7
20260506170516 64 338 6.0 12.0 0.00 0.00 0.00 65 1008.7
20260506165516 64 338 6.0 11.0 0.00 0.00 0.00 64 1008.7
20260506164516 65 338 6.0 15.0 0.00 0.00 0.00 62 1008.4
20260506163516 65 338 4.0 11.0 0.00 0.00 0.00 63 1008.4
20260506162516 66 338 4.0 10.0 0.00 0.00 0.00 62 1008.5
20260506161516 66 338 4.0 14.0 0.00 0.00 0.00 61 1008.4
20260506160536 67 338 6.0 13.0 0.00 0.00 0.00 58 1008.6
20260506155516 68 338 6.0 12.0 0.00 0.00 0.00 58 1008.7
20260506154516 68 338 6.0 11.0 0.00 0.00 0.00 57 1008.6
20260506153516 67 338 5.0 12.0 0.00 0.00 0.00 58 1008.6
20260506152516 65 338 5.0 11.0 0.00 0.00 0.00 64 1008.6
20260506151516 64 338 7.0 13.0 0.00 0.00 0.00 65 1008.5
20260506150516 63 338 9.0 13.0 0.00 0.00 0.00 67 1008.6
20260506145536 63 338 6.0 13.0 0.00 0.00 0.00 66 1008.4
20260506144536 64 338 7.0 14.0 0.00 0.00 0.00 66 1008.3
20260506143516 64 338 8.0 12.0 0.00 0.00 0.00 67 1008.5
20260506142516 64 338 7.0 11.0 0.00 0.00 0.00 68 1008.9
20260506141516 64 338 3.0 12.0 0.00 0.00 0.00 66 1008.9
20260506140516 64 338 8.0 13.0 0.00 0.00 0.00 66 1009.0
20260506135516 64 338 7.0 13.0 0.00 0.00 0.00 65 1009.0
20260506134516 64 338 2.0 11.0 0.00 0.00 0.00 65 1009.1
20260506133516 65 338 4.0 9.0 0.00 0.00 0.00 61 1009.3
20260506132516 65 338 5.0 12.0 0.00 0.00 0.00 61 1009.2
20260506131516 66 338 3.0 11.0 0.00 0.00 0.00 61 1009.3
20260506130516 65 338 1.0 5.0 0.00 0.00 0.00 63 1009.3
20260506125516 67 338 1.0 5.0 0.00 0.00 0.00 58 1009.4
20260506124536 69 0.0 5.0 0.00 0.00 0.00 51 1009.5
20260506123516 69 338 6.0 15.0 0.00 0.00 0.00 53 1009.3
20260506122516 69 338 6.0 14.0 0.00 0.00 0.00 54 1009.4
20260506121516 69 338 4.0 12.0 0.00 0.00 0.00 52 1009.6
20260506120516 71 338 5.0 12.0 0.00 0.00 0.00 52 1009.8
20260506115516 71 338 4.0 11.0 0.00 0.00 0.00 53 1010.1
20260506114533 70 338 2.0 9.0 0.00 0.00 0.00 54 1010.1
20260506113516 69 338 5.0 12.0 0.00 0.00 0.00 55 1010.1
20260506112516 66 338 1.0 7.0 0.00 0.00 0.00 58 1010.1
20260506111515 66 0.0 4.0 0.00 0.00 0.00 57 1010.0
20260506110516 65 0.0 0.0 0.00 0.00 0.00 59 1010.1
20260506105515 66 338 4.0 10.0 0.00 0.00 0.00 57 1010.4
20260506104516 67 338 1.0 7.0 0.00 0.00 0.00 55 1010.4
20260506103536 67 338 1.0 7.0 0.00 0.00 0.00 56 1010.4
20260506102516 65 338 1.0 5.0 0.00 0.00 0.00 62 1010.5
20260506101516 64 338 1.0 4.0 0.00 0.00 0.00 61 1010.5
20260506100515 64 0.0 2.0 0.00 0.00 0.00 62 1010.7
20260506095535 65 0.0 0.0 0.00 0.00 0.00 60 1010.8
20260506094515 65 0.0 3.0 0.00 0.00 0.00 62 1010.8
20260506093515 64 0.0 3.0 0.00 0.00 0.00 62 1010.7
20260506092515 64 0.0 0.0 0.00 0.00 0.00 63 1010.5
20260506091515 64 0.0 3.0 0.00 0.00 0.00 66 1010.5
20260506090515 63 338 1.0 5.0 0.00 0.00 0.00 65 1010.4
20260506085515 62 0.0 5.0 0.00 0.00 0.00 69 1010.5
20260506084515 62 0.0 1.0 0.00 0.00 0.00 65 1010.4
20260506083515 62 0.0 0.0 0.00 0.00 0.00 68 1010.4
20260506082537 62 0.0 1.0 0.00 0.00 0.00 70 1010.5
20260506081517 61 0.0 0.0 0.00 0.00 0.00 70 1010.3
20260506080518 60 338 1.0 5.0 0.00 0.00 0.00 72 1010.2
20260506073517 59 0.0 0.0 0.00 0.00 0.00 77 1010.3
20260506072517 57 0.0 1.0 0.00 0.00 0.00 80 1010.2
20260506071517 57 338 1.0 4.0 0.00 0.00 0.00 80 1010.3
20260506070517 56 338 1.0 4.0 0.00 0.00 0.00 83 1010.3
20260506061517 53 338 5.0 10.0 0.00 0.00 0.00 85 1010.1
20260506060537 52 338 6.0 10.0 0.00 0.00 0.00 85 1010.1
20260506050517 52 315 6.0 12.0 0.00 0.00 0.00 84 1009.8
20260506044517 52 315 5.0 10.0 0.00 0.00 0.00 84 1009.6
20260506043517 52 315 5.0 10.0 0.00 0.00 0.00 84 1009.6
20260506042517 52 315 2.0 10.0 0.00 0.00 0.00 84 1009.7
20260506041517 52 0.0 3.0 0.00 0.00 0.00 84 1009.7
20260506040517 51 0.0 1.0 0.00 0.00 0.00 85 1009.7
20260506035537 51 0.0 0.0 0.00 0.00 0.00 84 1009.7
20260506034517 51 0.0 0.0 0.00 0.00 0.00 84 1009.7
20260506033517 52 0.0 0.0 0.00 0.00 0.00 84 1009.8
20260506032517 52 0.0 1.0 0.00 0.00 0.00 83 1009.9
20260506031517 52 0.0 0.0 0.00 0.00 0.00 83 1009.9
20260506030517 53 315 3.0 11.0 0.00 0.00 0.00 83 1009.9
20260506025517 53 315 6.0 10.0 0.00 0.00 0.00 83 1009.9
20260506024517 52 338 2.0 10.0 0.00 0.00 0.00 82 1010.0
20260506023517 52 0.0 1.0 0.00 0.00 0.00 79 1009.8
20260506022517 52 0.0 1.0 0.00 0.00 0.00 76 1009.8
20260506021517 52 0.0 5.0 0.00 0.00 0.00 74 1009.9
20260506020517 53 338 1.0 4.0 0.00 0.00 0.00 74 1010.1
20260506015517 53 338 1.0 5.0 0.00 0.00 0.00 73 1009.9
20260506014517 54 315 1.0 8.0 0.00 0.00 0.00 73 1010.2
20260506013537 53 0.0 1.0 0.00 0.00 0.00 74 1010.1
20260506012517 53 0.0 0.0 0.00 0.00 0.00 73 1010.2
20260506011537 54 0.0 0.0 0.00 0.00 0.00 71 1010.4
20260506010537 53 0.0 0.0 0.00 0.00 0.00 72 1010.2
20260506005517 51 0.0 8.0 0.00 0.00 0.00 69 1010.1
20260506004517 49 315 1.0 5.0 0.00 0.00 0.00 73 1010.0